Baltimore, MD

3:56 AM EDT on August 20, 2017 (GMT -0400)
Baltimore-Washington International

Weather History for KBWI - March, 2013

Change the Weather History Date:

Tuesday, March 26, 2013

  Actual Average Record
Temperature  
Mean Temperature 40 °F 47 °F  
Max Temperature 50 °F 57 °F 84 °F (1921)
Min Temperature 30 °F 37 °F 21 °F (1878)
Degree Days  
Heating Degree Days 25 18  
Month to date heating degree days 651 580  
Since 1 July heating degree days 3943 4175  
Cooling Degree Days 0 0  
Month to date cooling degree days 0 0  
Year to date cooling degree days 0 0  
Moisture  
Dew Point 29 °F    
Average Humidity 67    
Maximum Humidity 100    
Minimum Humidity 33    
Precipitation  
Precipitation T in 0.13 in 2.31 in (1978)
Month to date precipitation 2.60 3.23  
Year to date precipitation 8.19 9.18  
Snow  
Snow 0.00 in 0.00 in 3.00 in (1900)
Month to date snowfall 3.2 1.8  
Since 1 July snowfall 8.0 20.0  
Snow Depth 1.00 in    
Sea Level Pressure  
Sea Level Pressure 29.82 in    
Wind  
Wind Speed 9 mph (WNW)    
Max Wind Speed 18 mph    
Max Gust Speed 23 mph    
Visibility 9 miles    
Events Rain    
T = Trace of Precipitation, MM = Missing Value Source: NWS Daily Summary

Daily Weather History Graph

Daily Weather History Graph

Search for Another Location

Airport or City:

Trip Planner

Search our weather history database for the weather conditions in past years. The results will help you decide how hot, cold, wet, or windy it might be!

Date:

Astronomy

Mar. 26, 2013 Rise Set
Actual Time 7:00 AM EDT 7:24 PM EDT
Civil Twilight 6:33 AM EDT 7:51 PM EDT
Nautical Twilight 6:02 AM EDT 8:23 PM EDT
Astronomical Twilight 5:29 AM EDT 8:55 PM EDT
Moon 6:59 PM EDT (3/26) 6:15 AM EDT (3/26)
Length of Visible Light 13h 18m
Length of Day
12h 24m
Waxing Gibbous, 99% of the Moon is Illuminated
Mar 26
Waxing Gibbous
Mar 27
Full
Apr 3
Last Quarter
Apr 10
New
Apr 18
First Quarter

Hourly Weather History & Observations

Time (EDT) Temp. Windchill Dew Point Humidity Pressure Visibility Wind Dir Wind Speed Gust Speed Precip Events Conditions
12:09 AM 33.8 °F 29.6 °F 32.0 °F 93% 29.69 in 4.0 mi WNW 4.6 mph - N/A   Overcast
12:37 AM 32.0 °F 27.5 °F 30.2 °F 93% 29.69 in 5.0 mi WNW 4.6 mph - N/A   Mostly Cloudy
12:54 AM 32.0 °F 27.5 °F 30.9 °F 96% 29.70 in 5.0 mi West 4.6 mph - N/A   Mostly Cloudy
1:54 AM 32.0 °F 25.6 °F 30.9 °F 96% 29.71 in 7.0 mi West 6.9 mph - N/A   Mostly Cloudy
2:54 AM 33.1 °F 26.9 °F 30.9 °F 92% 29.72 in 7.0 mi West 6.9 mph - N/A   Overcast
3:54 AM 32.0 °F 26.4 °F 30.9 °F 96% 29.73 in 6.0 mi West 5.8 mph - N/A   Overcast
4:54 AM 32.0 °F 25.6 °F 30.0 °F 92% 29.74 in 7.0 mi WNW 6.9 mph - N/A   Scattered Clouds
5:54 AM 30.9 °F 26.2 °F 30.0 °F 96% 29.76 in 7.0 mi WNW 4.6 mph - N/A   Partly Cloudy
6:54 AM 30.9 °F 25.2 °F 30.0 °F 96% 29.78 in 9.0 mi West 5.8 mph - N/A   Scattered Clouds
7:54 AM 33.1 °F 30.0 °F 30.0 °F 89% 29.81 in 10.0 mi West 3.5 mph - N/A   Partly Cloudy
8:54 AM 37.0 °F 31.0 °F 30.9 °F 79% 29.82 in 10.0 mi WNW 8.1 mph - N/A   Partly Cloudy
9:54 AM 39.9 °F 36.7 °F 32.0 °F 73% 29.83 in 10.0 mi NW 4.6 mph - N/A   Scattered Clouds
10:54 AM 42.1 °F 35.2 °F 30.9 °F 65% 29.84 in 10.0 mi NW 12.7 mph - N/A   Scattered Clouds
11:54 AM 45.0 °F 38.9 °F 30.9 °F 58% 29.85 in 10.0 mi NW 12.7 mph 19.6 mph N/A   Scattered Clouds
12:54 PM 46.0 °F 40.6 °F 30.9 °F 56% 29.85 in 10.0 mi NW 11.5 mph 17.3 mph N/A   Scattered Clouds
1:54 PM 48.0 °F - 30.0 °F 50% 29.85 in 10.0 mi NW 6.9 mph - N/A   Scattered Clouds
2:54 PM 48.9 °F - 25.0 °F 39% 29.84 in 10.0 mi North 11.5 mph - N/A   Mostly Cloudy
3:54 PM 46.9 °F - 27.0 °F 46% 29.84 in 10.0 mi WNW 12.7 mph 17.3 mph N/A   Mostly Cloudy
4:54 PM 48.0 °F - 26.1 °F 42% 29.84 in 10.0 mi WNW 10.4 mph - N/A   Mostly Cloudy
5:54 PM 50.0 °F - 23.0 °F 35% 29.85 in 10.0 mi NW 3.5 mph - N/A   Scattered Clouds
6:54 PM 48.0 °F - 27.0 °F 44% 29.87 in 10.0 mi West 16.1 mph 20.7 mph N/A   Mostly Cloudy
7:54 PM 46.0 °F 41.0 °F 28.9 °F 51% 29.91 in 10.0 mi NNW 10.4 mph 21.9 mph 0.00 in Rain Light Rain
8:54 PM 46.0 °F 40.2 °F 28.0 °F 50% 29.93 in 10.0 mi NW 12.7 mph 19.6 mph 0.00 in   Mostly Cloudy
9:54 PM 45.0 °F 40.6 °F 28.0 °F 52% 29.95 in 10.0 mi WNW 8.1 mph - N/A   Mostly Cloudy
10:54 PM 44.1 °F 37.7 °F 27.0 °F 51% 29.95 in 10.0 mi WNW 12.7 mph - N/A   Mostly Cloudy
11:54 PM 43.0 °F 36.4 °F 27.0 °F 53% 29.96 in 10.0 mi WNW 12.7 mph 18.4 mph N/A   Mostly Cloudy